Weather in Portland

United States     45°31′09″N   122°40′17″W
temp.,
°C
wind,
m/s
gust,
m/s
humid.,
%
clouds,
%
prec.,
mm/h
press.,
hPa
HPBL,
m
16 may, sun
sun1623:00+15nnw12680 0.0 101540
02:00+12nne11795 0.0 101513
05:00+10nne11822 0.0 101513
08:00+13n12595 0.0 1016304
11:00+21nw12355 0.0 1015782
14:00+27w02250 0.0 10131249
17:00+28n13254 0.0 10102118
20:00+21nnw37484 0.0 1011484
17 may, mon
mon1723:00+15nw25680 0.0 1013228
02:00+13nne01795 0.0 101480
05:00+11se018699 0.0 101536
08:00+12ssw2282100 0.0 1016566
11:00+14ssw3473100 0.0 1017866
14:00+17s4657100 0.1 10161282
17:00+19sw4641100 0.1 10141887
20:00+15wsw485486 0.0 10151030
18 may, tue
tue1823:00+12ssw4108490 0.1 1016954
02:00+8w388869 0.6 1019518
05:00+7ssw258998 0.6 1021167
08:00+9ssw377393 0.0 1022555
11:00+14sw354650 0.1 10211894
14:00+16wsw353193 0.1 10202366
17:00+17w542698 0.1 10192656
20:00+13wnw464387 0.0 1019945
19 may, wed
wed1923:00+8nw136197 0.0 1020172
02:00+6wnw1480100 0.0 1020180
05:00+5wnw0086100 0.0 102027
08:00+8w116978 0.0 1021500
11:00+14w234086 0.0 10192027
14:00+15w4434100 0.0 10172495
17:00+14wsw353894 0.1 10161715
20:00+12nw574315 0.0 1017996
20 may, thu
thu2023:00+7wnw27685 0.0 1018294
02:00+5wsw11817 0.0 101942
05:00+5se118433 0.0 101922
08:00+7wsw1267100 0.0 1020407
11:00+14w134356 0.0 10191478
14:00+15ese243877 0.0 10181846
17:00+16nw3440100 0.0 10171898
20:00+13nw475519 0.1 1017719